DW8824 Weather Reports


Display with metric or nautical units.
time (UTC)temp
F
wind
direction
speed
MPH
gust
MPH
rain 1hr
in
rain 24hr
in
rain mn
in
humidity
%
barometer
mb
20200129075904 82 78 6.0 12.0 0.00 0.06 0.00 71 1013.8
20200129075404 82 46 8.0 14.0 0.00 0.06 0.00 70 1013.8
20200129074904 83 109 5.0 13.0 0.00 0.06 0.00 70 1013.8
20200129074404 82 93 6.0 13.0 0.00 0.06 0.00 71 1013.8
20200129073905 82 109 8.0 12.0 0.00 0.06 0.00 72 1013.8
20200129073405 82 111 9.0 13.0 0.00 0.06 0.00 72 1013.8
20200129072904 82 134 7.0 15.0 0.00 0.06 0.00 73 1013.9
20200129072405 82 106 9.0 13.0 0.00 0.06 0.00 73 1013.8
20200129071904 82 89 7.0 15.0 0.00 0.06 0.00 74 1013.8
20200129071404 81 109 9.0 14.0 0.00 0.06 0.00 74 1013.8
20200129070904 81 81 7.0 13.0 0.00 0.06 0.00 72 1013.8
20200129070404 81 118 8.0 13.0 0.00 0.06 0.00 71 1013.8
20200129065904 81 87 8.0 12.0 0.00 0.06 0.00 71 1013.9
20200129065404 82 62 5.0 12.0 0.00 0.06 0.00 73 1013.9
20200129064905 81 71 7.0 13.0 0.00 0.06 0.00 72 1013.9
20200129064405 82 65 9.0 12.0 0.00 0.06 0.00 71 1013.9
20200129063905 82 92 4.0 10.0 0.00 0.06 0.00 70 1014.0
20200129063404 83 120 8.0 13.0 0.00 0.06 0.00 68 1014.0
20200129062904 82 59 3.0 9.0 0.00 0.06 0.00 67 1014.0
20200129062404 82 88 6.0 10.0 0.00 0.06 0.00 65 1014.0
20200129061904 82 101 5.0 8.0 0.00 0.06 0.00 64 1014.0
20200129061405 82 73 3.0 9.0 0.00 0.06 0.00 64 1014.0
20200129060904 82 57 5.0 8.0 0.00 0.06 0.00 64 1014.1
20200129060404 82 92 5.0 9.0 0.00 0.06 0.00 65 1014.1
20200129055904 82 87 6.0 10.0 0.00 0.06 0.00 67 1014.1
20200129055404 81 126 5.0 12.0 0.00 0.06 0.00 66 1014.1
20200129054904 81 89 5.0 9.0 0.00 0.06 0.00 68 1014.2
20200129054404 81 104 5.0 10.0 0.00 0.06 0.00 67 1014.3
20200129053904 80 132 4.0 8.0 0.00 0.06 0.00 70 1014.3
20200129053404 80 127 5.0 8.0 0.00 0.06 0.00 68 1014.4
20200129052904 80 99 4.0 10.0 0.00 0.06 0.00 69 1014.5
20200129052404 80 96 3.0 9.0 0.00 0.06 0.00 71 1014.4
20200129051904 80 87 3.0 8.0 0.00 0.06 0.00 72 1014.5
20200129051404 80 119 6.0 9.0 0.00 0.06 0.00 71 1014.5
20200129050904 80 120 2.0 8.0 0.00 0.06 0.00 72 1014.5
20200129050404 80 116 5.0 8.0 0.00 0.06 0.00 73 1014.5
20200129045904 80 118 4.0 8.0 0.00 0.06 0.00 71 1014.6
20200129045405 80 88 2.0 5.0 0.00 0.06 0.00 72 1014.5
20200129044904 80 115 3.0 6.0 0.00 0.06 0.00 73 1014.5
20200129044405 79 125 3.0 7.0 0.00 0.06 0.00 75 1014.4
20200129043904 79 131 5.0 7.0 0.00 0.06 0.00 74 1014.4
20200129043405 79 135 2.0 5.0 0.00 0.06 0.00 76 1014.3
20200129042904 79 143 2.0 3.0 0.00 0.06 0.00 77 1014.3
20200129042404 78 158 2.0 3.0 0.00 0.06 0.00 77 1014.3
20200129041904 78 143 3.0 6.0 0.00 0.06 0.00 78 1014.3
20200129041404 78 151 2.0 5.0 0.00 0.06 0.00 79 1014.3
20200129040904 77 107 2.0 3.0 0.00 0.06 0.00 81 1014.2
20200129040405 77 139 2.0 3.0 0.00 0.06 0.00 82 1014.1
20200129035904 77 171 1.0 3.0 0.00 0.06 0.00 83 1014.1
20200129035404 76 161 2.0 3.0 0.00 0.06 0.00 83 1014.0
20200129034904 76 166 2.0 5.0 0.00 0.06 0.00 83 1014.1
20200129034404 76 163 2.0 3.0 0.00 0.06 0.00 83 1014.1
20200129033905 75 184 2.0 3.0 0.00 0.06 0.00 83 1014.0
20200129033405 75 153 1.0 3.0 0.00 0.06 0.00 83 1014.0
20200129032905 75 162 2.0 5.0 0.00 0.06 0.00 83 1014.0
20200129032405 75 169 2.0 6.0 0.00 0.06 0.00 83 1014.0
20200129031904 74 167 3.0 6.0 0.00 0.06 0.00 83 1014.0
20200129031405 74 167 3.0 5.0 0.00 0.06 0.00 84 1014.0
20200129030904 74 168 3.0 5.0 0.00 0.06 0.00 84 1014.0
20200129030405 74 156 2.0 6.0 0.00 0.06 0.00 84 1014.0
20200129025904 74 164 3.0 3.0 0.00 0.06 0.00 84 1014.0
20200129025404 73 171 2.0 5.0 0.00 0.06 0.00 84 1014.0
20200129024904 73 169 3.0 5.0 0.00 0.06 0.00 84 1013.9
20200129024404 73 180 3.0 5.0 0.00 0.06 0.00 84 1013.9
20200129023904 73 175 3.0 6.0 0.00 0.06 0.00 84 1013.8
20200129023404 73 173 3.0 6.0 0.00 0.06 0.00 84 1013.8
20200129022904 73 176 3.0 6.0 0.00 0.06 0.00 83 1013.7
20200129022404 73 183 4.0 7.0 0.00 0.06 0.00 83 1013.6
20200129021904 73 170 4.0 8.0 0.00 0.06 0.00 83 1013.5
20200129021404 73 178 5.0 7.0 0.00 0.06 0.00 84 1013.4
20200129020904 72 161 5.0 6.0 0.00 0.06 0.00 84 1013.3
20200129020405 72 152 5.0 9.0 0.00 0.06 0.00 84 1013.3
20200129015904 72 170 4.0 8.0 0.00 0.06 0.00 83 1013.3
20200129015404 72 171 5.0 8.0 0.00 0.06 0.00 84 1013.2
20200129014905 72 163 4.0 8.0 0.00 0.06 0.00 84 1013.2
20200129014404 72 162 5.0 9.0 0.00 0.06 0.00 84 1013.0
20200129013904 72 171 5.0 6.0 0.00 0.06 0.00 84 1013.0
20200129013404 72 172 3.0 6.0 0.00 0.06 0.00 84 1013.0
20200129012905 72 165 3.0 6.0 0.00 0.06 0.00 84 1012.9
20200129012404 72 155 3.0 6.0 0.00 0.06 0.00 84 1012.8
20200129011904 72 172 3.0 6.0 0.00 0.06 0.00 84 1012.8
20200129011404 72 176 3.0 5.0 0.00 0.06 0.00 84 1012.8
20200129010904 72 162 3.0 5.0 0.00 0.06 0.00 84 1012.8
20200129010404 72 173 2.0 6.0 0.00 0.06 0.00 83 1012.8
20200129005904 72 172 3.0 6.0 0.00 0.06 0.00 83 1012.8
20200129005404 72 158 3.0 6.0 0.00 0.06 0.00 83 1012.7
20200129004904 73 160 5.0 8.0 0.00 0.06 0.00 82 1012.7
20200129004404 73 164 4.0 7.0 0.00 0.06 0.00 82 1012.7
20200129003904 73 166 3.0 6.0 0.00 0.06 0.00 82 1012.6
20200129003404 73 170 4.0 6.0 0.00 0.06 0.00 82 1012.6
20200129002904 73 166 3.0 6.0 0.00 0.06 0.00 82 1012.5
20200129002404 73 160 3.0 6.0 0.00 0.06 0.00 83 1012.5
20200129001904 73 170 3.0 6.0 0.00 0.06 0.00 83 1012.5
20200129001404 73 168 3.0 6.0 0.00 0.06 0.00 83 1012.5
20200129000904 72 171 4.0 6.0 0.00 0.06 0.00 83 1012.5
20200129000404 72 160 3.0 6.0 0.00 0.06 0.00 83 1012.6
20200128235904 72 163 3.0 5.0 0.00 0.06 0.00 83 1012.6
20200128235404 72 178 3.0 5.0 0.00 0.06 0.00 83 1012.6
20200128234905 73 175 3.0 6.0 0.00 0.06 0.00 82 1012.7
20200128234404 73 164 5.0 6.0 0.00 0.06 0.00 82 1012.6
20200128233905 73 160 3.0 6.0 0.00 0.06 0.00 82 1012.6
20200128233404 73 157 5.0 6.0 0.00 0.06 0.00 82 1012.6
20200128232904 73 157 5.0 7.0 0.00 0.06 0.00 82 1012.7
20200128232405 73 163 3.0 8.0 0.00 0.06 0.00 82 1012.7
20200128231904 73 153 5.0 7.0 0.00 0.06 0.00 82 1012.7
20200128231404 73 162 5.0 6.0 0.00 0.06 0.00 82 1012.7
20200128230904 73 150 4.0 7.0 0.00 0.06 0.00 81 1012.7
20200128230404 73 166 4.0 7.0 0.00 0.06 0.00 82 1012.7
20200128225904 73 153 3.0 6.0 0.00 0.06 0.00 82 1012.8
20200128225405 73 160 3.0 6.0 0.00 0.06 0.00 82 1012.8
20200128224904 73 165 3.0 5.0 0.00 0.06 0.00 82 1012.9
20200128224404 73 168 3.0 7.0 0.00 0.06 0.00 82 1012.9
20200128223904 72 157 3.0 8.0 0.00 0.06 0.00 83 1012.9
20200128223404 72 168 5.0 8.0 0.00 0.06 0.00 83 1012.8
20200128222904 72 166 4.0 6.0 0.00 0.06 0.00 84 1012.8
20200128222405 72 170 4.0 7.0 0.00 0.06 0.00 84 1012.8
20200128221904 72 179 3.0 7.0 0.00 0.06 0.00 84 1012.8
20200128221404 72 173 4.0 6.0 0.00 0.06 0.00 84 1012.8
20200128220904 72 174 3.0 7.0 0.00 0.06 0.00 84 1012.8
20200128220404 72 178 3.0 7.0 0.00 0.06 0.00 84 1012.8
20200128215904 72 171 4.0 7.0 0.00 0.06 0.00 85 1012.8
20200128215405 72 166 3.0 8.0 0.00 0.06 0.00 85 1012.9
20200128214904 72 168 3.0 5.0 0.00 0.06 0.00 84 1013.0
20200128214404 72 171 3.0 5.0 0.00 0.06 0.00 84 1013.0
20200128213904 72 167 3.0 5.0 0.00 0.06 0.00 83 1013.0
20200128213404 73 156 5.0 6.0 0.00 0.06 0.00 83 1013.1
20200128212904 73 159 5.0 7.0 0.00 0.06 0.00 83 1013.0
20200128212404 73 157 4.0 7.0 0.00 0.06 0.00 83 1013.1
20200128211904 73 158 5.0 8.0 0.00 0.06 0.00 83 1013.1
20200128211405 73 161 3.0 7.0 0.00 0.06 0.00 84 1013.1
20200128210904 72 159 5.0 8.0 0.00 0.06 0.00 84 1013.1
20200128210405 72 161 3.0 8.0 0.00 0.06 0.00 84 1013.2
20200128205904 72 158 3.0 6.0 0.00 0.06 0.00 84 1013.2
20200128205405 72 159 3.0 7.0 0.00 0.06 0.00 83 1013.3
20200128204904 73 164 5.0 6.0 0.00 0.06 0.00 83 1013.4
20200128204405 73 164 5.0 9.0 0.00 0.06 0.00 83 1013.3
20200128203904 73 169 4.0 9.0 0.00 0.06 0.00 83 1013.4
20200128203405 73 163 5.0 7.0 0.00 0.06 0.00 83 1013.4
20200128202904 73 164 4.0 6.0 0.00 0.06 0.00 83 1013.5
20200128202405 73 159 3.0 6.0 0.00 0.06 0.00 82 1013.5
20200128201904 73 171 4.0 6.0 0.00 0.06 0.00 82 1013.5
20200128201404 73 185 4.0 7.0 0.00 0.06 0.00 82 1013.6
20200128200904 73 161 4.0 8.0 0.00 0.06 0.00 82 1013.7
20200128200404 73 174 3.0 6.0 0.00 0.06 0.00 81 1013.7
20200128195904 73 162 3.0 6.0 0.00 0.06 0.06 81 1013.7
20200128195404 73 170 3.0 7.0 0.00 0.06 0.06 80 1013.8
20200128194904 73 163 5.0 8.0 0.00 0.06 0.06 80 1013.7
20200128194405 73 168 3.0 7.0 0.00 0.06 0.06 80 1013.8
20200128193904 73 150 4.0 7.0 0.00 0.06 0.06 80 1013.9
20200128193404 73 152 3.0 6.0 0.00 0.06 0.06 80 1013.9
20200128192904 74 152 5.0 6.0 0.00 0.06 0.06 80 1013.9
20200128192404 74 163 4.0 7.0 0.00 0.06 0.06 80 1013.9
20200128191904 74 148 3.0 6.0 0.00 0.06 0.06 80 1013.9
20200128191404 74 156 3.0 6.0 0.00 0.06 0.06 80 1013.9
20200128190904 74 154 5.0 6.0 0.00 0.06 0.06 80 1013.9
20200128190404 74 151 4.0 9.0 0.00 0.06 0.06 81 1013.9
20200128185904 74 148 5.0 8.0 0.00 0.06 0.06 81 1013.9
20200128185405 74 171 3.0 6.0 0.00 0.06 0.06 81 1013.9
20200128184904 74 171 3.0 6.0 0.00 0.06 0.06 81 1013.9
20200128184404 74 165 3.0 5.0 0.00 0.06 0.06 80 1013.9
20200128183904 74 162 5.0 8.0 0.00 0.06 0.06 80 1013.9
20200128183404 74 157 3.0 5.0 0.00 0.06 0.06 79 1013.9
20200128182904 74 159 3.0 5.0 0.00 0.06 0.06 79 1013.9
20200128182404 74 165 2.0 6.0 0.00 0.06 0.06 80 1013.9
20200128181904 74 163 3.0 6.0 0.00 0.06 0.06 80 1013.9
20200128181404 74 157 3.0 7.0 0.00 0.06 0.06 80 1013.9
20200128180904 74 159 2.0 5.0 0.00 0.06 0.06 80 1013.9
20200128180405 74 160 3.0 6.0 0.00 0.06 0.06 80 1013.9
20200128175904 74 156 3.0 7.0 0.00 0.06 0.06 80 1013.8
20200128175405 74 178 3.0 7.0 0.00 0.06 0.06 80 1013.9
20200128174904 74 161 2.0 6.0 0.00 0.06 0.06 79 1013.9
20200128174404 74 167 3.0 6.0 0.00 0.06 0.06 79 1013.8
20200128173903 75 166 3.0 6.0 0.00 0.06 0.06 79 1013.8
20200128173404 75 154 3.0 5.0 0.00 0.06 0.06 79 1013.7
20200128172904 75 156 3.0 6.0 0.00 0.06 0.06 79 1013.7
20200128172404 75 159 2.0 6.0 0.00 0.06 0.06 78 1013.7
20200128171903 75 167 2.0 5.0 0.00 0.06 0.06 78 1013.7
20200128171404 75 165 3.0 5.0 0.00 0.06 0.06 79 1013.6
20200128170905 75 152 3.0 6.0 0.00 0.06 0.06 79 1013.6
20200128170404 75 159 3.0 6.0 0.00 0.06 0.06 79 1013.5
20200128165904 75 173 3.0 5.0 0.00 0.06 0.06 79 1013.5
20200128165404 75 162 3.0 5.0 0.00 0.06 0.06 79 1013.4
20200128164904 75 171 3.0 6.0 0.00 0.06 0.06 79 1013.4
20200128164404 75 170 3.0 6.0 0.00 0.06 0.06 79 1013.4
20200128163904 75 181 3.0 5.0 0.00 0.06 0.06 79 1013.2
20200128163405 75 176 3.0 6.0 0.00 0.06 0.06 80 1013.2
20200128162904 75 174 2.0 5.0 0.00 0.06 0.06 80 1013.1
20200128162404 75 173 2.0 3.0 0.00 0.06 0.06 80 1013.1
20200128161904 75 166 2.0 5.0 0.00 0.06 0.06 80 1013.1
20200128161405 75 158 3.0 6.0 0.00 0.06 0.06 80 1013.0
20200128160904 75 172 2.0 3.0 0.00 0.06 0.06 80 1012.9
20200128160405 75 187 3.0 7.0 0.00 0.06 0.06 80 1012.9
20200128155904 75 192 1.0 3.0 0.00 0.06 0.06 80 1012.9
20200128155404 75 167 1.0 3.0 0.00 0.06 0.06 80 1012.8
20200128154904 75 164 1.0 3.0 0.00 0.06 0.06 80 1012.9
20200128154405 75 173 2.0 5.0 0.00 0.06 0.06 81 1012.8
20200128153904 76 160 1.0 3.0 0.00 0.06 0.06 81 1012.8
20200128153405 76 187 1.0 3.0 0.00 0.06 0.06 80 1012.7
20200128152904 76 198 1.0 3.0 0.00 0.06 0.06 80 1012.6
20200128152404 76 209 2.0 3.0 0.00 0.06 0.06 79 1012.6
20200128151904 76 191 1.0 3.0 0.00 0.06 0.06 79 1012.6
20200128151405 76 183 2.0 3.0 0.00 0.06 0.06 78 1012.5
20200128150904 76 178 2.0 5.0 0.00 0.06 0.06 78 1012.5
20200128150404 76 199 2.0 6.0 0.00 0.06 0.06 77 1012.4
20200128145904 76 190 2.0 6.0 0.00 0.06 0.06 77 1012.2
20200128145404 76 167 3.0 6.0 0.00 0.06 0.06 76 1012.1
20200128144904 77 165 2.0 3.0 0.00 0.06 0.06 76 1012.0
20200128144404 77 165 1.0 3.0 0.00 0.06 0.06 75 1011.9
20200128143904 77 201 0.0 1.0 0.00 0.06 0.06 75 1011.9
20200128143404 77 201 1.0 2.0 0.00 0.06 0.06 75 1011.7
20200128142904 77 201 1.0 3.0 0.00 0.06 0.06 76 1011.6
20200128142405 77 193 1.0 3.0 0.00 0.06 0.06 75 1011.6
20200128141904 77 234 1.0 3.0 0.00 0.06 0.06 75 1011.6
20200128141405 77 185 1.0 3.0 0.00 0.06 0.06 75 1011.5
20200128140904 77 169 1.0 3.0 0.00 0.06 0.06 75 1011.4
20200128140405 77 180 4.0 7.0 0.00 0.06 0.06 74 1011.4
20200128135904 77 164 2.0 5.0 0.00 0.06 0.06 74 1011.4
20200128135404 77 185 2.0 5.0 0.00 0.06 0.06 75 1011.4
20200128134904 77 141 3.0 7.0 0.00 0.06 0.06 75 1011.3
20200128134405 76 143 5.0 9.0 0.00 0.06 0.06 75 1011.4
20200128133904 76 138 6.0 9.0 0.00 0.06 0.06 76 1011.4
20200128133404 76 165 4.0 7.0 0.00 0.06 0.06 77 1011.4
20200128132904 76 166 4.0 7.0 0.00 0.06 0.06 77 1011.4
20200128132405 76 181 2.0 9.0 0.00 0.06 0.06 78 1011.4
20200128131904 76 166 4.0 9.0 0.00 0.06 0.06 77 1011.4
20200128131405 76 177 6.0 10.0 0.00 0.06 0.06 78 1011.4
20200128130904 76 171 6.0 10.0 0.00 0.06 0.06 78 1011.4
20200128130404 76 174 5.0 9.0 0.00 0.06 0.06 78 1011.4
20200128125904 76 186 5.0 12.0 0.00 0.06 0.06 77 1011.4
20200128125404 76 156 5.0 9.0 0.00 0.06 0.06 77 1011.5
20200128124904 77 181 5.0 10.0 0.00 0.06 0.06 77 1011.4
20200128124405 77 170 3.0 9.0 0.00 0.06 0.06 78 1011.4
20200128123904 77 173 6.0 10.0 0.00 0.06 0.06 78 1011.4
20200128123404 77 176 3.0 10.0 0.00 0.06 0.06 79 1011.5
20200128122904 77 166 5.0 12.0 0.00 0.06 0.06 78 1011.5
20200128122404 78 169 5.0 9.0 0.00 0.06 0.06 76 1011.4
20200128121904 78 178 5.0 10.0 0.00 0.06 0.06 75 1011.4
20200128121404 79 168 3.0 7.0 0.00 0.06 0.06 72 1011.3
20200128120904 79 124 2.0 7.0 0.00 0.06 0.06 72 1011.3
20200128120404 80 130 4.0 7.0 0.00 0.06 0.06 71 1011.3
20200128115904 80 130 4.0 7.0 0.00 0.06 0.06 72 1011.2
20200128115405 81 159 3.0 6.0 0.00 0.06 0.06 71 1011.1
20200128114903 81 163 2.0 3.0 0.00 0.06 0.06 71 1011.1
20200128114404 80 148 3.0 6.0 0.00 0.06 0.06 71 1011.1
20200128113904 80 127 1.0 3.0 0.00 0.06 0.06 70 1011.2
20200128113404 80 156 2.0 3.0 0.00 0.06 0.06 70 1011.2
20200128112904 79 120 1.0 3.0 0.00 0.06 0.06 71 1011.2
20200128112405 79 144 1.0 3.0 0.00 0.06 0.06 71 1011.2
20200128111904 78 126 2.0 3.0 0.00 0.06 0.06 72 1011.3
20200128111404 78 108 1.0 3.0 0.00 0.06 0.06 75 1011.3
20200128110904 78 37 1.0 2.0 0.00 0.06 0.06 75 1011.3
20200128110405 77 339 2.0 3.0 0.00 0.06 0.06 75 1011.3
20200128105904 77 355 2.0 3.0 0.00 0.06 0.06 76 1011.3
20200128105404 77 53 1.0 3.0 0.00 0.06 0.06 79 1011.5
20200128104904 77 65 1.0 3.0 0.00 0.06 0.06 79 1011.5
20200128104404 76 19 1.0 3.0 0.00 0.06 0.06 78 1011.5
20200128103904 76 16 2.0 3.0 0.00 0.06 0.06 78 1011.4
20200128103404 75 28 3.0 3.0 0.00 0.06 0.06 79 1011.4
20200128102904 75 30 2.0 3.0 0.01 0.06 0.06 80 1011.7
20200128102404 74 282 3.0 3.0 0.01 0.06 0.06 82 1011.7
20200128101904 74 230 5.0 7.0 0.01 0.06 0.06 85 1011.8
20200128101405 74 224 5.0 8.0 0.02 0.06 0.06 87 1011.8
20200128100904 74 238 5.0 8.0 0.02 0.06 0.06 87 1011.9
20200128100405 74 243 5.0 8.0 0.02 0.06 0.06 87 1011.9
20200128095904 74 235 4.0 6.0 0.02 0.06 0.06 87 1011.9
20200128095405 74 233 5.0 8.0 0.02 0.06 0.06 87 1012.0
20200128094905 74 240 5.0 9.0 0.02 0.06 0.06 87 1012.0
20200128094404 74 238 3.0 6.0 0.02 0.06 0.06 88 1012.0
20200128093904 74 232 2.0 3.0 0.02 0.06 0.06 88 1012.0
20200128093404 74 221 2.0 6.0 0.02 0.06 0.06 87 1012.0
20200128092904 74 171 4.0 8.0 0.02 0.05 0.05 86 1012.1
20200128092404 75 169 3.0 8.0 0.02 0.05 0.05 85 1012.1
20200128091904 75 138 2.0 8.0 0.02 0.05 0.05 85 1012.1
20200128091405 76 147 5.0 9.0 0.02 0.04 0.04 83 1012.2
20200128090904 76 169 5.0 12.0 0.03 0.03 0.03 82 1012.1
20200128090404 76 242 4.0 6.0 0.03 0.03 0.03 81 1012.0
20200128085904 76 246 3.0 7.0 0.03 0.03 0.03 83 1011.9
20200128085405 76 246 3.0 7.0 0.03 0.03 0.03 84 1011.8
20200128084904 75 254 2.0 3.0 0.03 0.03 0.03 84 1011.8
20200128084404 75 267 3.0 6.0 0.03 0.03 0.03 84 1011.9
20200128083904 75 237 4.0 8.0 0.03 0.03 0.03 83 1012.1
20200128083404 76 230 6.0 8.0 0.03 0.03 0.03 83 1012.1
20200128082904 76 223 5.0 8.0 0.03 0.03 0.03 81 1012.1
20200128082405 77 242 5.0 7.0 0.03 0.03 0.03 80 1012.2
20200128081904 78 230 3.0 5.0 0.03 0.03 0.03 77 1012.1
20200128081404 78 246 4.0 8.0 0.02 0.02 0.02 74 1012.2
20200128080904 79 231 5.0 8.0 0.00 0.00 0.00 72 1012.0
20200128080404 80 257 6.0 8.0 0.00 0.00 0.00 69 1011.9